This is the latest recevied weather packets stored in our database for station/object KB0RPJ. If no packets are shown the sender has not sent any weather packets the latest 10 day(s).
| Time | Temp. | Humidity | Pressure | Rain* | Wind** | Luminosity | Snow |
|---|---|---|---|---|---|---|---|
| 1777998905 | 11.67° C | 55% | 1012 hPa | 0 mm | - | 159 W/m² | - |
| 1777998605 | 11.67° C | 57% | 1011.9 hPa | 0 mm | - | 158 W/m² | - |
| 1777998305 | 11.67° C | 56% | 1011.9 hPa | 0 mm | - | 155 W/m² | - |
| 1777998005 | 11.67° C | 56% | 1011.8 hPa | 0 mm | - | 156 W/m² | - |
| 1777997705 | 11.67° C | 55% | 1011.8 hPa | 0 mm | - | 155 W/m² | - |
| 1777997405 | 11.67° C | 56% | 1011.8 hPa | 0 mm | - | 159 W/m² | - |
| 1777997105 | 11.67° C | 56% | 1011.9 hPa | 0 mm | - | 168 W/m² | - |
| 1777996805 | 11.11° C | 55% | 1012 hPa | 0 mm | - | 164 W/m² | - |
| 1777996504 | 11.11° C | 55% | 1011.9 hPa | 0 mm | - | 174 W/m² | - |
| 1777996205 | 11.11° C | 56% | 1011.8 hPa | 0 mm | - | 209 W/m² | - |
| 1777995917 | 11.11° C | 56% | 1011.8 hPa | 0 mm | - | 211 W/m² | - |
| 1777995605 | 11.11° C | 59% | 1011.7 hPa | 0 mm | - | 189 W/m² | - |
| 1777995305 | 11.11° C | 57% | 1011.6 hPa | 0 mm | - | 160 W/m² | - |
| 1777995005 | 11.11° C | 58% | 1011.6 hPa | 0 mm | - | 136 W/m² | - |
| 1777994706 | 11.11° C | 58% | 1011.6 hPa | 0 mm | - | 103 W/m² | - |
| 1777994427 | 11.11° C | 59% | 1011.4 hPa | 0 mm | - | 83 W/m² | - |
| 1777994105 | 11.11° C | 60% | 1011.1 hPa | 0 mm | - | 80 W/m² | - |
| 1777993806 | 11.11° C | 58% | 1011 hPa | 0 mm | - | 92 W/m² | - |
| 1777993506 | 11.11° C | 58% | 1011 hPa | 0 mm | - | 92 W/m² | - |
| 1777993204 | 11.11° C | 60% | 1010.9 hPa | 0 mm | - | 99 W/m² | - |
| 1777992905 | 11.11° C | 60% | 1010.9 hPa | 0 mm | - | 102 W/m² | - |
| 1777992609 | 11.11° C | 60% | 1010.9 hPa | 0 mm | - | 103 W/m² | - |
| 1777992304 | 11.11° C | 60% | 1010.9 hPa | 0 mm | - | 113 W/m² | - |
| 1777992005 | 11.11° C | 61% | 1010.7 hPa | 0 mm | - | 118 W/m² | - |
| 1777991705 | 11.11° C | 61% | 1010.6 hPa | 0 mm | - | 134 W/m² | - |
* Rain latest hour (hover to see other rain measurements)
** Current wind speed in m/s (hover to see current wind gust speed)